Terug naar catalogus

TDRS 5

ActiefCommunicatieGEO
NORAD 21639·PAYLOAD·🇺🇸 United States

Gelanceerd Aug 2, 1991 vanaf Cape Canaveral Space Force Station

Loading…

TLE

VersSource: Space-Track

Epoch: Sep 14, 2026, 12:31 UTC

1 21639U 91054B   26257.52196488  .00000080  00000-0  00000-0 0  9993
2 21639  14.0609 353.1076 0009254 251.7068 129.1813  1.00280658128610

Volg TDRS 5 in realtime met AllMySat

Download on the App Store